Stations météo

réclame
Mon MeteoGroup
Gaddede A, Suède (2219): Température de l'air & dewpoint: 08.08.2018 08:00:00 - 14.08.2018 08:00:00 (CEST)Gaddede A, Suède (2219): Vitesse du vent & gusts: 08.08.2018 08:00:00 - 14.08.2018 08:00:00 (CEST)Gaddede A, Suède (2219): Direction du vent: 08.08.2018 08:00:00 - 14.08.2018 08:00:00 (CEST)Gaddede A, Suède (2219): reduced air pressure: 08.08.2018 08:00:00 - 14.08.2018 08:00:00 (CEST)Gaddede A, Suède (2219): visibility: 08.08.2018 08:00:00 - 14.08.2018 08:00:00 (CEST)Gaddede A, Suède (2219): Quantités de précipitations: 08.08.2018 08:00:00 - 14.08.2018 08:00:00 (CEST)
Date & Time tt [°C] td [°C] ff [km/h] ff [knt] fx [km/h] fx [knt] dd ppp [hPa] vv [km] rr [mm]
14.08.2018 08:00:00 6,5 4,7 2 1 7 4 W 1011,3 50 -
14.08.2018 07:00:00 6,2 4,7 1 0 6 4 WNW 1011,4 50 0,0
14.08.2018 06:00:00 5,8 5,1 3 1 10 5 NNW 1011,6 42 0,0
14.08.2018 05:00:00 5,6 5,2 6 4 16 8 WNW 1011,7 2,3 0,0
14.08.2018 04:00:00 6,2 5,3 6 4 13 7 NW 1011,3 50 -
14.08.2018 03:00:00 6,1 5,5 5 3 17 9 WNW 1011,2 50 0,0
14.08.2018 02:00:00 6,4 5,7 4 2 16 9 WNW 1011,0 50 -
14.08.2018 01:00:00 6,5 5,4 8 5 18 10 NW 1010,9 50 -
14.08.2018 00:00:00 6,4 5,2 11 6 27 15 WNW 1010,8 50 -
13.08.2018 23:00:00 6,6 5,5 8 4 26 14 WNW 1010,8 50 0,0
13.08.2018 22:00:00 7,5 5,8 9 5 20 11 WNW 1010,5 50 -
13.08.2018 21:00:00 7,5 5,6 8 5 27 15 WNW 1010,2 50 -
13.08.2018 20:00:00 8,0 5,5 13 7 26 14 NW 1009,7 50 -
13.08.2018 19:00:00 8,5 5,1 11 6 28 15 WNW 1009,9 47 -
13.08.2018 18:00:00 8,9 5,1 14 8 32 17 W 1009,9 50 -
13.08.2018 17:00:00 9,9 5,7 14 7 37 20 WNW 1009,5 50 -
13.08.2018 16:00:00 10,2 5,8 13 7 37 20 WNW 1009,0 50 -
13.08.2018 15:00:00 11,2 5,5 17 9 39 21 W 1008,4 49 -
13.08.2018 14:00:00 13,2 6,5 20 11 39 21 WNW 1007,8 46 -
13.08.2018 13:00:00 11,1 6,6 16 9 35 19 WNW 1007,8 50 -
13.08.2018 12:00:00 10,4 5,6 16 9 44 24 W 1008,0 50 -
13.08.2018 11:00:00 10,5 5,9 17 9 43 23 W 1007,5 50 0,0
13.08.2018 10:00:00 9,3 6,0 18 10 36 19 WNW 1007,5 46 -
13.08.2018 09:00:00 8,2 5,7 18 10 43 23 W 1007,3 50 -
13.08.2018 08:00:00 7,4 6,0 16 8 30 16 WNW 1007,1 50 -
13.08.2018 07:00:00 7,3 6,2 12 6 32 17 W 1006,9 50 -
13.08.2018 06:00:00 6,8 6,1 14 8 31 17 WNW 1007,0 8 0,0
13.08.2018 05:00:00 6,9 6,0 11 6 34 18 WNW 1006,9 50 0,0
13.08.2018 04:00:00 7,0 5,6 14 8 34 18 WNW 1006,7 50 -
13.08.2018 03:00:00 7,1 6,0 16 9 35 19 WNW 1006,5 50 -
13.08.2018 02:00:00 7,3 6,4 16 9 34 18 WNW 1006,5 50 -
13.08.2018 01:00:00 7,3 6,6 16 8 34 18 WNW 1006,7 28 0,0
13.08.2018 00:00:00 7,8 6,6 11 6 26 14 WNW 1006,5 50 -
12.08.2018 23:00:00 8,0 6,4 13 7 38 21 WNW 1006,4 50 -
12.08.2018 22:00:00 8,3 6,9 14 7 33 18 WNW 1006,4 50 -
12.08.2018 21:00:00 8,2 6,8 9 5 29 16 W 1006,4 50 0,0
12.08.2018 20:00:00 8,4 6,9 13 7 31 17 W 1006,5 50 0,0
12.08.2018 19:00:00 8,4 7,0 11 6 34 18 WNW 1006,6 13 0,0
12.08.2018 18:00:00 9,0 6,4 15 8 31 17 WNW 1006,7 50 0,0
12.08.2018 17:00:00 10,0 6,9 13 7 31 17 WNW 1006,7 50 -
12.08.2018 16:00:00 10,2 6,5 16 9 39 21 WNW 1006,6 50 -
12.08.2018 15:00:00 11,8 7,9 13 7 41 22 WNW 1006,3 50 -
12.08.2018 14:00:00 9,7 7,5 12 7 32 17 WNW 1006,8 22 0,0
12.08.2018 13:00:00 11,1 6,6 16 9 35 19 W 1006,5 50 0,0
12.08.2018 12:00:00 10,0 6,3 12 6 29 16 WNW 1007,0 50 -
12.08.2018 11:00:00 10,0 7,8 11 6 33 18 WNW 1007,2 50 0,0
12.08.2018 10:00:00 8,7 6,3 14 7 34 19 W 1007,4 50 -
12.08.2018 09:00:00 8,1 6,4 12 7 29 16 W 1007,8 50 -
12.08.2018 08:00:00 7,7 7,1 10 5 26 14 W 1008,1 45 -
12.08.2018 07:00:00 7,1 6,8 7 4 19 10 W 1008,5 29 -
12.08.2018 06:00:00 6,7 6,6 8 5 24 13 WNW 1008,7 25 -
12.08.2018 05:00:00 5,7 5,6 8 4 22 12 WNW 1009,2 26 -
12.08.2018 04:00:00 5,8 5,7 11 6 26 14 WNW 1009,8 37 -
12.08.2018 03:00:00 7,0 6,7 10 6 27 15 WNW 1009,8 12 -
12.08.2018 02:00:00 7,4 6,7 11 6 29 16 WNW 1010,1 22 0,0
12.08.2018 01:00:00 7,1 6,0 10 5 25 14 W 1010,5 44 -
12.08.2018 00:00:00 7,6 6,2 9 5 27 15 WNW 1010,6 50 -
11.08.2018 23:00:00 7,9 6,7 12 7 24 13 W 1010,9 22 0,0
11.08.2018 22:00:00 8,1 6,7 10 6 25 13 W 1011,0 46 -
11.08.2018 21:00:00 8,3 6,3 9 5 31 17 WNW 1011,2 50 -
11.08.2018 20:00:00 9,0 6,4 13 7 32 17 W 1010,7 50 -
11.08.2018 19:00:00 10,3 7,4 14 8 34 19 W 1010,4 39 0,0
11.08.2018 18:00:00 11,1 7,4 18 10 42 23 WNW 1009,9 44 0,0
11.08.2018 17:00:00 13,2 7,8 16 9 39 21 W 1008,9 45 -
11.08.2018 16:00:00 10,6 6,7 17 9 49 27 WNW 1009,4 50 -
11.08.2018 15:00:00 10,1 7,0 16 8 48 26 W 1008,7 50 -
11.08.2018 14:00:00 11,2 7,9 18 10 53 28 W 1007,7 50 0,0
11.08.2018 13:00:00 9,3 6,6 22 12 - - W 1006,8 50 -
11.08.2018 12:00:00 8,9 6,7 - - 64 35 - 1005,5 - -
11.08.2018 11:00:00 8,9 6,9 24 13 63 34 W 1003,9 50 0,0
11.08.2018 10:00:00 8,4 7,5 30 16 70 38 W 1002,5 16 0,0
11.08.2018 09:00:00 9,0 8,1 30 16 63 34 W 1000,1 42 0,0
11.08.2018 08:00:00 9,4 8,8 24 13 56 30 W 998,1 43 -
11.08.2018 07:00:00 9,7 9,1 22 12 49 26 W 996,6 19 -
11.08.2018 06:00:00 10,1 9,6 18 10 34 19 W 996,1 37 -
11.08.2018 05:00:00 9,5 8,3 9 5 29 16 ESE 996,0 9 -
11.08.2018 04:00:00 10,4 7,8 12 6 27 14 SE 995,9 50 -
11.08.2018 03:00:00 11,0 9,4 12 6 27 14 SE 995,7 50 -
11.08.2018 02:00:00 11,8 9,7 11 6 32 17 SE 996,3 11 -
11.08.2018 01:00:00 13,0 9,6 13 7 44 24 SE 996,2 50 -
11.08.2018 00:00:00 13,7 9,9 14 8 41 22 ESE 996,7 50 -
10.08.2018 23:00:00 14,1 11,1 11 6 28 15 ESE 997,2 50 -
10.08.2018 22:00:00 15,6 12,5 10 5 37 20 SE 996,9 50 -
10.08.2018 21:00:00 16,5 15,2 17 9 34 18 ESE 996,4 35 -
10.08.2018 20:00:00 16,6 15,3 16 8 34 18 ESE 997,3 40 -
10.08.2018 19:00:00 16,6 15,5 17 9 35 19 ESE 998,3 47 -
10.08.2018 18:00:00 15,6 14,8 19 10 37 20 E 999,3 14 -
10.08.2018 17:00:00 15,0 14,2 19 10 39 21 ESE 1000,7 6 -
10.08.2018 16:00:00 13,8 13,0 20 11 40 22 ESE 1001,9 9 -
10.08.2018 15:00:00 13,2 12,3 14 8 32 17 ESE 1003,2 5 -
10.08.2018 14:00:00 12,7 11,8 19 10 34 18 E 1004,7 6 -
10.08.2018 13:00:00 12,0 11,5 7 4 18 10 SSE 1006,2 17 -
10.08.2018 12:00:00 11,7 11,4 6 3 18 10 SSE 1008,1 14 -
10.08.2018 11:00:00 11,0 10,2 3 2 16 9 ESE 1009,7 8 -
10.08.2018 10:00:00 11,1 10,0 4 2 12 6 E 1010,5 10 0,0
10.08.2018 09:00:00 11,6 9,3 5 3 14 7 W 1010,8 50 -
10.08.2018 08:00:00 11,7 8,5 6 3 19 10 SE 1012,1 50 -
10.08.2018 07:00:00 11,6 8,6 3 2 13 7 W 1012,3 50 -
10.08.2018 06:00:00 11,2 8,8 6 3 10 5 E 1013,1 50 -
10.08.2018 05:00:00 9,3 8,5 3 2 9 5 E 1014,3 50 -
10.08.2018 04:00:00 8,8 8,0 3 2 8 4 E 1015,2 49 -
10.08.2018 03:00:00 9,5 8,6 5 3 7 4 E 1014,9 50 -
10.08.2018 02:00:00 8,8 7,9 3 1 8 4 E 1015,7 50 -
10.08.2018 01:00:00 9,9 8,5 3 1 16 8 E 1015,3 50 -
10.08.2018 00:00:00 11,9 8,4 11 6 16 9 N 1014,5 50 -
09.08.2018 23:00:00 11,5 8,2 13 7 15 8 N 1014,6 50 -
09.08.2018 22:00:00 11,9 9,1 8 5 12 6 N 1014,4 50 -
09.08.2018 21:00:00 11,9 9,6 6 4 11 6 N 1014,1 50 -
09.08.2018 20:00:00 14,0 9,6 5 3 12 6 WNW 1013,6 50 -
09.08.2018 19:00:00 15,0 8,9 4 2 13 7 W 1012,8 50 -
09.08.2018 18:00:00 17,1 8,3 6 4 15 8 W 1012,3 50 -
09.08.2018 17:00:00 15,7 7,7 5 3 17 9 SSE 1012,0 43 -
09.08.2018 16:00:00 17,0 7,3 7 4 22 12 WNW 1012,0 50 -
09.08.2018 15:00:00 16,3 8,5 9 5 23 12 WNW 1011,9 48 -
09.08.2018 14:00:00 15,4 7,9 11 6 29 16 WNW 1011,8 50 -
09.08.2018 13:00:00 16,9 8,3 16 8 36 19 W 1010,6 37 -
09.08.2018 12:00:00 16,6 9,8 14 8 39 21 W 1010,3 50 -
09.08.2018 11:00:00 16,2 9,1 19 11 39 21 W 1009,4 50 0,0
09.08.2018 10:00:00 15,1 10,9 14 7 34 19 W 1008,5 50 0,0
09.08.2018 09:00:00 12,8 11,0 14 7 26 14 W 1008,1 50 -
09.08.2018 08:00:00 13,3 10,8 14 7 34 18 W 1006,8 46 -
09.08.2018 07:00:00 12,4 12,1 12 6 40 21 W 1006,6 50 0,0
09.08.2018 06:00:00 13,6 12,5 22 12 50 27 W 1004,3 13 0,0
09.08.2018 05:00:00 16,1 13,9 15 8 29 15 ESE 1002,1 49 -
09.08.2018 04:00:00 16,0 13,8 12 6 26 14 ESE 1002,5 49 -
09.08.2018 03:00:00 15,8 13,8 10 5 21 11 ESE 1003,2 48 -
09.08.2018 02:00:00 16,0 13,8 8 4 22 12 SE 1003,4 50 -
09.08.2018 01:00:00 16,9 13,6 10 6 28 15 SSE 1003,6 50 -
09.08.2018 00:00:00 16,8 13,9 6 3 27 15 SSE 1004,2 50 -
08.08.2018 23:00:00 17,0 13,7 12 7 29 16 SE 1004,5 50 -
08.08.2018 22:00:00 16,4 13,9 10 5 24 13 ESE 1004,7 50 -
08.08.2018 21:00:00 15,9 13,4 11 6 27 14 ESE 1005,1 50 -
08.08.2018 20:00:00 15,8 13,5 13 7 31 17 E 1005,5 50 -
08.08.2018 19:00:00 16,2 13,1 14 8 32 17 ESE 1005,8 50 0,0
08.08.2018 18:00:00 16,8 13,5 12 7 31 17 ESE 1006,2 50 0,0
08.08.2018 17:00:00 18,9 13,1 20 11 41 22 SE 1005,8 31 0,0
08.08.2018 16:00:00 20,9 11,5 18 10 36 20 ESE 1005,2 50 -
08.08.2018 15:00:00 21,1 12,2 13 7 31 17 ESE 1005,5 50 -
08.08.2018 14:00:00 21,2 12,1 15 8 28 15 SE 1006,1 46 -
08.08.2018 13:00:00 20,0 12,7 11 6 34 19 SE 1006,4 50 -
08.08.2018 12:00:00 20,5 12,5 16 9 30 16 ESE 1006,7 41 -
08.08.2018 11:00:00 18,2 11,7 16 9 30 16 ESE 1007,7 46 -
08.08.2018 10:00:00 17,5 11,1 15 8 32 17 ESE 1007,6 48 -
08.08.2018 09:00:00 16,6 10,7 11 6 26 14 ESE 1008,3 48 -
08.08.2018 08:00:00 14,6 9,8 13 7 26 14 E 1009,0 48 -

tt = Température de l'air
td = dewpoint
ff = Vitesse du vent
fx = gusts
dd = Direction du vent
ppp = reduced air pressure
vv = visibility
rr = Quantités de précipitations

stations d'obs. à proximité